Portada
METAR-TAF:

METAR-TAF

Aeroports :

Whyalla, Austràlia

latitud: 33-03-32S, longitud: 137-30-52E, altitud: 12 m

Observació

L'informe es va fer fa 24 minuts, a les 11:00 UTC
Vent 11 kt del Sud
Temperatura 15°C
Humitat 72%
Pressió 1019 hPa
Visibilitat 10 km o més
Cel cobert a una alçada de 2200 ft

METAR: YWHA 171100Z AUTO 17011KT 9999 // OVC022 15/10 Q1019

Hora: 21:54 (11:24 UTC)


TAF: manca

Observacions i pronòstics meteorològics de més de 4000 aeroports (METAR i TAF).

Les estacions disponibles són els punts grocs i vermells al mapa.

Posi el ratolí al punt desitjat per veure el nom de l'estació.

Feu clic per veure les observacions i els pronòstics meteorològics.

Per canviar el mapa: feu clic els botons verds amb una creu de color negre per apropar; al botó verd amb un guió per allunyar la imatge; o en les fletxes verdes per a mapes adjacents.


METAR-TAF: